Location: Mountain Grove
(34.0887°N, 86.6172°W)
Time: 22:04:08
(UTC+00:00)

Cosmos 1674 Rocket - Pass Details

Date: 14 July 2020
Orbit: 602 x 631 km, 82.5° (Epoch: 08 August)

Event Time Altitude Azimuth Distance (km) Brightness Sun altitude
Rises 09:13:31 0° 340° (NNW) 2,869 7.3 -16.6°
Reaches altitude 10° 09:15:57 10° 329° (NNW) 1,957 6.2 -16.2°
Maximum altitude 09:19:39 28° 270° (W) 1,138 4.5 -15.7°
Enters shadow 09:20:30 26° 249° (WSW) 1,195 4.5 -15.5°
